Time,TemperatureF,DewpointF,PressureIn,WindDirection,WindDirectionDegrees,WindSpeedMPH,WindSpeedGustMPH,Humidity,HourlyPrecipIn,Conditions,Clouds,dailyrainin,SoftwareType,DateUTC
2013-09-28 00:01:00,52.2,49.0,30.22,ENE,67,0.0,0.0,89,0.00,,,0.00,WUHU21623XXSP,2013-09-28 04:01:00,
2013-09-28 00:06:00,52.0,48.8,30.23,ENE,67,0.0,0.0,89,0.00,,,0.00,WUHU21623XXSP,2013-09-28 04:06:00,
2013-09-28 00:11:00,52.0,49.1,30.23,ENE,67,0.0,0.0,90,0.00,,,0.00,WUHU21623XXSP,2013-09-28 04:11:00,
2013-09-28 00:16:00,51.6,48.7,30.23,ENE,67,0.0,0.0,90,0.00,,,0.00,WUHU21623XXSP,2013-09-28 04:16:00,
2013-09-28 00:21:00,51.8,48.9,30.23,ENE,67,0.0,0.0,90,0.00,,,0.00,WUHU21623XXSP,2013-09-28 04:21:00,
2013-09-28 00:26:00,51.6,48.7,30.23,ENE,67,0.0,0.0,90,0.00,,,0.00,WUHU21623XXSP,2013-09-28 04:26:00,
2013-09-28 00:31:00,51.3,48.4,30.23,ENE,67,0.0,0.0,90,0.00,,,0.00,WUHU21623XXSP,2013-09-28 04:31:00,
2013-09-28 00:36:00,50.7,47.8,30.23,ENE,67,0.0,0.0,90,0.00,,,0.00,WUHU21623XXSP,2013-09-28 04:36:00,
2013-09-28 00:42:00,50.7,47.8,30.23,ENE,67,0.0,0.0,90,0.00,,,0.00,WUHU21623XXSP,2013-09-28 04:42:00,
2013-09-28 00:47:00,50.5,47.7,30.23,ENE,67,0.0,0.0,90,0.00,,,0.00,WUHU21623XXSP,2013-09-28 04:47:00,
2013-09-28 00:52:00,50.5,47.7,30.23,ENE,67,0.0,0.0,90,0.00,,,0.00,WUHU21623XXSP,2013-09-28 04:52:00,
2013-09-28 00:57:00,50.4,47.5,30.23,ENE,67,0.0,0.0,90,0.00,,,0.00,WUHU21623XXSP,2013-09-28 04:57:00,
2013-09-28 01:02:00,50.4,47.5,30.23,ENE,67,0.0,0.0,90,0.00,,,0.00,WUHU21623XXSP,2013-09-28 05:02:00,
2013-09-28 01:07:00,50.2,47.3,30.23,ENE,67,0.0,0.0,90,0.00,,,0.00,WUHU21623XXSP,2013-09-28 05:07:00,
2013-09-28 01:12:00,49.8,47.0,30.23,ENE,67,0.0,0.0,90,0.00,,,0.00,WUHU21623XXSP,2013-09-28 05:12:00,
2013-09-28 01:17:00,49.3,46.7,30.23,ENE,67,0.0,0.0,91,0.00,,,0.00,WUHU21623XXSP,2013-09-28 05:17:00,
2013-09-28 01:22:00,49.5,46.9,30.23,ENE,67,0.0,0.0,91,0.00,,,0.00,WUHU21623XXSP,2013-09-28 05:22:00,
2013-09-28 01:27:00,49.8,47.2,30.23,ENE,67,0.0,0.0,91,0.00,,,0.00,WUHU21623XXSP,2013-09-28 05:27:00,
2013-09-28 01:32:00,50.2,47.6,30.23,ENE,67,0.0,0.0,91,0.00,,,0.00,WUHU21623XXSP,2013-09-28 05:32:00,
2013-09-28 01:38:00,50.2,47.9,30.23,ENE,67,0.0,0.0,92,0.00,,,0.00,WUHU21623XXSP,2013-09-28 05:38:00,
2013-09-28 01:44:00,50.4,48.1,30.23,ENE,67,0.0,0.0,92,0.00,,,0.00,WUHU21623XXSP,2013-09-28 05:44:00,
2013-09-28 01:49:00,50.5,48.2,30.23,ENE,67,0.0,0.0,92,0.00,,,0.00,WUHU21623XXSP,2013-09-28 05:49:00,
2013-09-28 01:54:00,49.8,47.5,30.23,ENE,67,0.0,0.0,92,0.00,,,0.00,WUHU21623XXSP,2013-09-28 05:54:00,
2013-09-28 01:59:00,49.1,46.9,30.23,ENE,67,0.0,0.0,92,0.00,,,0.00,WUHU21623XXSP,2013-09-28 05:59:00,
2013-09-28 02:04:00,48.7,46.5,30.23,ENE,67,0.0,0.0,92,0.00,,,0.00,WUHU21623XXSP,2013-09-28 06:04:00,
2013-09-28 02:09:00,48.4,46.2,30.23,ENE,67,0.0,0.0,92,0.00,,,0.00,WUHU21623XXSP,2013-09-28 06:09:00,
2013-09-28 02:14:00,48.6,46.4,30.23,ENE,67,0.0,0.0,92,0.00,,,0.00,WUHU21623XXSP,2013-09-28 06:14:00,
2013-09-28 02:19:00,48.0,45.9,30.23,ENE,67,0.0,0.0,92,0.00,,,0.00,WUHU21623XXSP,2013-09-28 06:19:00,
2013-09-28 02:24:00,47.8,45.7,30.23,ENE,67,0.0,0.0,92,0.00,,,0.00,WUHU21623XXSP,2013-09-28 06:24:00,
2013-09-28 02:29:00,47.5,45.3,30.23,ENE,67,0.0,0.0,92,0.00,,,0.00,WUHU21623XXSP,2013-09-28 06:29:00,
2013-09-28 02:34:00,47.1,45.0,30.23,ENE,67,0.0,0.0,92,0.00,,,0.00,WUHU21623XXSP,2013-09-28 06:34:00,
2013-09-28 02:39:00,47.1,45.0,30.23,ENE,67,0.0,0.0,92,0.00,,,0.00,WUHU21623XXSP,2013-09-28 06:39:00,
2013-09-28 02:44:00,47.1,45.0,30.23,ENE,67,0.0,0.0,92,0.00,,,0.00,WUHU21623XXSP,2013-09-28 06:44:00,
2013-09-28 02:49:00,46.9,44.8,30.23,ENE,67,0.0,0.0,92,0.00,,,0.00,WUHU21623XXSP,2013-09-28 06:49:00,
2013-09-28 02:54:00,46.8,44.6,30.23,ENE,67,0.0,0.0,92,0.00,,,0.00,WUHU21623XXSP,2013-09-28 06:54:00,
2013-09-28 02:59:00,46.6,44.4,30.23,ENE,67,0.0,0.0,92,0.00,,,0.00,WUHU21623XXSP,2013-09-28 06:59:00,
2013-09-28 03:04:00,46.6,44.4,30.23,ENE,67,0.0,0.0,92,0.00,,,0.00,WUHU21623XXSP,2013-09-28 07:04:00,
2013-09-28 03:09:00,45.7,43.8,30.23,ENE,67,0.0,0.0,93,0.00,,,0.00,WUHU21623XXSP,2013-09-28 07:09:00,
2013-09-28 03:14:00,46.0,44.1,30.23,ENE,67,0.0,0.0,93,0.00,,,0.00,WUHU21623XXSP,2013-09-28 07:14:00,
2013-09-28 03:19:00,46.0,44.1,30.22,ENE,67,0.0,0.0,93,0.00,,,0.00,WUHU21623XXSP,2013-09-28 07:19:00,
2013-09-28 03:24:00,46.4,44.5,30.22,ENE,67,0.0,0.0,93,0.00,,,0.00,WUHU21623XXSP,2013-09-28 07:24:00,
2013-09-28 03:29:00,46.2,44.3,30.22,ENE,67,0.0,0.0,93,0.00,,,0.00,WUHU21623XXSP,2013-09-28 07:29:00,
2013-09-28 03:34:00,46.6,44.7,30.22,ENE,67,0.0,0.0,93,0.00,,,0.00,WUHU21623XXSP,2013-09-28 07:34:00,
2013-09-28 03:39:00,46.6,44.7,30.22,ENE,67,0.0,0.0,93,0.00,,,0.00,WUHU21623XXSP,2013-09-28 07:39:00,
2013-09-28 03:44:00,47.3,45.4,30.22,ENE,67,0.0,0.0,93,0.00,,,0.00,WUHU21623XXSP,2013-09-28 07:44:00,
2013-09-28 03:49:00,47.3,45.4,30.22,ENE,67,0.0,0.0,93,0.00,,,0.00,WUHU21623XXSP,2013-09-28 07:49:00,
2013-09-28 03:54:00,46.8,44.9,30.22,ENE,67,0.0,0.0,93,0.00,,,0.00,WUHU21623XXSP,2013-09-28 07:54:00,
2013-09-28 03:59:00,46.0,44.1,30.22,ENE,67,0.0,0.0,93,0.00,,,0.00,WUHU21623XXSP,2013-09-28 07:59:00,
2013-09-28 04:04:00,45.5,43.6,30.23,ENE,67,0.0,0.0,93,0.00,,,0.00,WUHU21623XXSP,2013-09-28 08:04:00,
2013-09-28 04:10:00,45.5,43.6,30.22,ENE,67,0.0,0.0,93,0.00,,,0.00,WUHU21623XXSP,2013-09-28 08:10:00,
2013-09-28 04:15:00,45.5,43.6,30.22,ENE,67,0.0,0.0,93,0.00,,,0.00,WUHU21623XXSP,2013-09-28 08:15:00,
2013-09-28 04:20:00,45.3,43.4,30.22,ENE,67,0.0,0.0,93,0.00,,,0.00,WUHU21623XXSP,2013-09-28 08:20:00,
2013-09-28 04:25:00,45.3,43.4,30.22,ENE,67,0.0,0.0,93,0.00,,,0.00,WUHU21623XXSP,2013-09-28 08:25:00,
2013-09-28 04:30:00,45.1,43.3,30.22,ENE,67,0.0,0.0,93,0.00,,,0.00,WUHU21623XXSP,2013-09-28 08:30:00,
2013-09-28 04:35:00,45.1,43.3,30.22,ENE,67,0.0,0.0,93,0.00,,,0.00,WUHU21623XXSP,2013-09-28 08:35:00,
2013-09-28 04:40:00,45.0,43.1,30.22,ENE,67,0.0,0.0,93,0.00,,,0.00,WUHU21623XXSP,2013-09-28 08:40:00,
2013-09-28 04:45:00,45.0,43.1,30.22,ENE,67,0.0,0.0,93,0.00,,,0.00,WUHU21623XXSP,2013-09-28 08:45:00,
2013-09-28 04:50:00,44.6,42.7,30.22,ENE,67,0.0,0.0,93,0.00,,,0.00,WUHU21623XXSP,2013-09-28 08:50:00,
2013-09-28 04:55:00,44.4,42.5,30.22,ENE,67,0.0,0.0,93,0.00,,,0.00,WUHU21623XXSP,2013-09-28 08:55:00,
2013-09-28 05:00:00,44.4,42.5,30.22,ENE,67,0.0,0.0,93,0.00,,,0.00,WUHU21623XXSP,2013-09-28 09:00:00,
2013-09-28 05:05:00,44.4,42.5,30.22,ENE,67,0.0,0.0,93,0.00,,,0.00,WUHU21623XXSP,2013-09-28 09:05:00,
2013-09-28 05:10:00,44.4,42.5,30.22,ENE,67,0.0,0.0,93,0.00,,,0.00,WUHU21623XXSP,2013-09-28 09:10:00,
2013-09-28 05:15:00,44.4,42.5,30.22,ENE,67,0.0,0.0,93,0.00,,,0.00,WUHU21623XXSP,2013-09-28 09:15:00,
2013-09-28 05:20:00,44.4,42.5,30.22,ENE,67,0.0,0.0,93,0.00,,,0.00,WUHU21623XXSP,2013-09-28 09:20:00,
2013-09-28 05:25:00,44.2,42.4,30.23,ENE,67,0.0,0.0,93,0.00,,,0.00,WUHU21623XXSP,2013-09-28 09:25:00,
2013-09-28 05:30:00,44.2,42.4,30.23,ENE,67,0.0,0.0,93,0.00,,,0.00,WUHU21623XXSP,2013-09-28 09:30:00,
2013-09-28 05:35:00,44.1,42.2,30.23,ENE,67,0.0,0.0,93,0.00,,,0.00,WUHU21623XXSP,2013-09-28 09:35:00,
2013-09-28 05:40:00,44.1,42.2,30.23,ENE,67,0.0,0.0,93,0.00,,,0.00,WUHU21623XXSP,2013-09-28 09:40:00,
2013-09-28 05:45:00,44.1,42.4,30.23,ENE,67,0.0,0.0,94,0.00,,,0.00,WUHU21623XXSP,2013-09-28 09:45:00,
2013-09-28 05:50:00,44.4,42.5,30.23,ENE,67,0.0,0.0,93,0.00,,,0.00,WUHU21623XXSP,2013-09-28 09:50:00,
2013-09-28 05:55:00,44.4,42.5,30.23,ENE,67,0.0,0.0,93,0.00,,,0.00,WUHU21623XXSP,2013-09-28 09:55:00,
2013-09-28 06:00:00,44.2,42.4,30.23,ENE,67,0.0,0.0,93,0.00,,,0.00,WUHU21623XXSP,2013-09-28 10:00:00,
2013-09-28 06:05:00,44.2,42.6,30.23,ENE,67,0.0,0.0,94,0.00,,,0.00,WUHU21623XXSP,2013-09-28 10:05:00,
2013-09-28 06:10:00,44.2,42.6,30.23,ENE,67,0.0,0.0,94,0.00,,,0.00,WUHU21623XXSP,2013-09-28 10:10:00,
2013-09-28 06:15:00,43.9,42.3,30.23,ENE,67,0.0,0.0,94,0.00,,,0.00,WUHU21623XXSP,2013-09-28 10:15:00,
2013-09-28 06:20:00,43.7,42.1,30.23,ENE,67,0.0,0.0,94,0.00,,,0.00,WUHU21623XXSP,2013-09-28 10:20:00,
2013-09-28 06:25:00,43.7,42.1,30.23,ENE,67,0.0,0.0,94,0.00,,,0.00,WUHU21623XXSP,2013-09-28 10:25:00,
2013-09-28 06:30:00,43.5,41.9,30.23,ENE,67,0.0,0.0,94,0.00,,,0.00,WUHU21623XXSP,2013-09-28 10:30:00,
2013-09-28 06:36:00,43.5,41.9,30.23,ENE,67,0.0,0.0,94,0.00,,,0.00,WUHU21623XXSP,2013-09-28 10:36:00,
2013-09-28 06:40:00,43.5,41.9,30.23,ENE,67,0.0,0.0,94,0.00,,,0.00,WUHU21623XXSP,2013-09-28 10:40:00,
2013-09-28 06:46:00,43.3,41.5,30.23,ENE,67,0.0,0.0,93,0.00,,,0.00,WUHU21623XXSP,2013-09-28 10:46:00,
2013-09-28 06:51:00,43.3,41.5,30.23,ENE,67,0.0,0.0,93,0.00,,,0.00,WUHU21623XXSP,2013-09-28 10:51:00,
2013-09-28 06:56:00,43.3,41.5,30.23,ENE,67,0.0,0.0,93,0.00,,,0.00,WUHU21623XXSP,2013-09-28 10:56:00,
2013-09-28 07:01:00,43.2,41.3,30.23,ENE,67,0.0,0.0,93,0.00,,,0.00,WUHU21623XXSP,2013-09-28 11:01:00,
2013-09-28 07:06:00,43.3,41.5,30.24,ENE,67,0.0,0.0,93,0.00,,,0.00,WUHU21623XXSP,2013-09-28 11:06:00,
2013-09-28 07:11:00,43.5,41.9,30.24,ENE,67,0.0,0.0,94,0.00,,,0.00,WUHU21623XXSP,2013-09-28 11:11:00,
2013-09-28 07:16:00,43.2,41.3,30.24,ENE,67,0.0,0.0,93,0.00,,,0.00,WUHU21623XXSP,2013-09-28 11:16:00,
2013-09-28 07:21:00,43.0,41.4,30.24,ENE,67,0.0,0.0,94,0.00,,,0.00,WUHU21623XXSP,2013-09-28 11:21:00,
2013-09-28 07:26:00,43.0,41.4,30.24,ENE,67,0.0,0.0,94,0.00,,,0.00,WUHU21623XXSP,2013-09-28 11:26:00,
2013-09-28 07:31:00,43.0,41.4,30.24,ENE,67,0.0,0.0,94,0.00,,,0.00,WUHU21623XXSP,2013-09-28 11:31:00,
2013-09-28 07:36:00,43.3,41.7,30.24,ENE,67,0.0,0.0,94,0.00,,,0.00,WUHU21623XXSP,2013-09-28 11:36:00,
2013-09-28 07:41:00,43.9,42.3,30.24,ENE,67,0.0,0.0,94,0.00,,,0.00,WUHU21623XXSP,2013-09-28 11:41:00,
2013-09-28 07:46:00,44.8,43.2,30.24,ENE,67,0.0,0.0,94,0.00,,,0.00,WUHU21623XXSP,2013-09-28 11:46:00,
2013-09-28 07:51:00,45.5,43.9,30.24,ENE,67,0.0,0.0,94,0.00,,,0.00,WUHU21623XXSP,2013-09-28 11:51:00,
2013-09-28 07:56:00,46.6,45.0,30.24,ENE,67,0.0,0.0,94,0.00,,,0.00,WUHU21623XXSP,2013-09-28 11:56:00,
2013-09-28 08:01:00,47.5,45.9,30.25,ENE,67,0.0,0.0,94,0.00,,,0.00,WUHU21623XXSP,2013-09-28 12:01:00,
2013-09-28 08:06:00,48.4,46.7,30.25,ENE,67,0.0,0.0,94,0.00,,,0.00,WUHU21623XXSP,2013-09-28 12:06:00,
2013-09-28 08:11:00,49.1,47.4,30.25,ENE,67,0.0,0.0,94,0.00,,,0.00,WUHU21623XXSP,2013-09-28 12:11:00,
2013-09-28 08:16:00,50.2,48.7,30.25,ENE,67,0.0,0.0,95,0.00,,,0.00,WUHU21623XXSP,2013-09-28 12:16:00,
2013-09-28 08:21:00,50.7,49.3,30.24,ENE,67,0.0,0.0,95,0.00,,,0.00,WUHU21623XXSP,2013-09-28 12:21:00,
2013-09-28 08:26:00,51.4,49.7,30.25,ENE,67,0.0,0.0,94,0.00,,,0.00,WUHU21623XXSP,2013-09-28 12:26:00,
2013-09-28 08:31:00,52.2,50.4,30.25,ENE,67,0.0,0.0,94,0.00,,,0.00,WUHU21623XXSP,2013-09-28 12:31:00,
2013-09-28 08:36:00,52.9,51.2,30.25,ENE,67,0.0,0.0,94,0.00,,,0.00,WUHU21623XXSP,2013-09-28 12:36:00,
2013-09-28 08:41:00,53.8,52.1,30.24,ENE,67,0.0,0.0,94,0.00,,,0.00,WUHU21623XXSP,2013-09-28 12:41:00,
2013-09-28 08:46:00,54.5,52.8,30.24,ENE,67,0.0,0.0,94,0.00,,,0.00,WUHU21623XXSP,2013-09-28 12:46:00,
2013-09-28 08:51:00,55.0,53.0,30.24,ENE,67,0.0,0.0,93,0.00,,,0.00,WUHU21623XXSP,2013-09-28 12:51:00,
2013-09-28 08:56:00,55.6,53.6,30.25,East,90,0.0,0.0,93,0.00,,,0.00,WUHU21623XXSP,2013-09-28 12:56:00,
2013-09-28 09:01:00,56.1,53.8,30.25,East,90,0.0,0.0,92,0.00,,,0.00,WUHU21623XXSP,2013-09-28 13:01:00,
2013-09-28 09:06:00,56.8,54.2,30.25,ESE,112,0.0,5.6,91,0.00,,,0.00,WUHU21623XXSP,2013-09-28 13:06:00,
2013-09-28 09:11:00,57.4,54.5,30.25,ESE,112,0.0,5.6,90,0.00,,,0.00,WUHU21623XXSP,2013-09-28 13:11:00,
2013-09-28 09:16:00,57.9,54.7,30.25,ESE,112,0.0,4.0,89,0.00,,,0.00,WUHU21623XXSP,2013-09-28 13:16:00,
2013-09-28 09:21:00,58.8,55.6,30.25,SE,135,2.2,4.0,89,0.00,,,0.00,WUHU21623XXSP,2013-09-28 13:21:00,
2013-09-28 09:26:00,59.2,55.7,30.25,SE,135,0.0,4.0,88,0.00,,,0.00,WUHU21623XXSP,2013-09-28 13:26:00,
2013-09-28 09:31:00,59.9,56.0,30.24,SE,135,0.0,4.9,87,0.00,,,0.00,WUHU21623XXSP,2013-09-28 13:31:00,
2013-09-28 09:36:00,60.4,56.3,30.24,SE,135,0.0,4.9,86,0.00,,,0.00,WUHU21623XXSP,2013-09-28 13:36:00,
2013-09-28 09:41:00,60.6,56.1,30.25,SE,135,3.4,4.3,85,0.00,,,0.00,WUHU21623XXSP,2013-09-28 13:41:00,
2013-09-28 09:46:00,61.2,56.3,30.25,SE,135,0.0,3.4,84,0.00,,,0.00,WUHU21623XXSP,2013-09-28 13:46:00,
2013-09-28 09:51:00,61.5,56.3,30.25,SE,135,0.0,1.8,83,0.00,,,0.00,WUHU21623XXSP,2013-09-28 13:51:00,
2013-09-28 09:56:00,62.2,56.6,30.25,SE,135,0.0,1.3,82,0.00,,,0.00,WUHU21623XXSP,2013-09-28 13:56:00,
2013-09-28 10:02:00,63.0,57.3,30.25,SE,135,0.0,0.0,82,0.00,,,0.00,WUHU21623XXSP,2013-09-28 14:02:00,
2013-09-28 10:07:00,64.0,58.1,30.25,SE,135,0.0,0.0,81,0.00,,,0.00,WUHU21623XXSP,2013-09-28 14:07:00,
2013-09-28 10:12:00,65.1,58.4,30.24,SE,135,1.8,1.8,79,0.00,,,0.00,WUHU21623XXSP,2013-09-28 14:12:00,
2013-09-28 10:17:00,65.5,58.4,30.25,SE,135,0.0,1.8,78,0.00,,,0.00,WUHU21623XXSP,2013-09-28 14:17:00,
2013-09-28 10:22:00,66.4,59.3,30.25,SE,135,0.0,0.0,78,0.00,,,0.00,WUHU21623XXSP,2013-09-28 14:22:00,
2013-09-28 10:27:00,67.3,59.1,30.25,SE,135,0.0,0.0,75,0.00,,,0.00,WUHU21623XXSP,2013-09-28 14:27:00,
2013-09-28 10:32:00,67.8,58.9,30.25,SE,135,0.0,0.0,73,0.00,,,0.00,WUHU21623XXSP,2013-09-28 14:32:00,
2013-09-28 10:37:00,67.8,58.5,30.25,SE,135,0.0,1.6,72,0.00,,,0.00,WUHU21623XXSP,2013-09-28 14:37:00,
2013-09-28 10:42:00,68.0,58.7,30.24,SE,135,0.0,5.4,72,0.00,,,0.00,WUHU21623XXSP,2013-09-28 14:42:00,
2013-09-28 10:47:00,68.2,58.5,30.24,SE,135,0.0,5.4,71,0.00,,,0.00,WUHU21623XXSP,2013-09-28 14:47:00,
2013-09-28 10:52:00,68.4,58.2,30.24,SE,135,0.0,4.3,70,0.00,,,0.00,WUHU21623XXSP,2013-09-28 14:52:00,
2013-09-28 10:57:00,68.9,58.3,30.25,SE,135,0.0,4.3,69,0.00,,,0.00,WUHU21623XXSP,2013-09-28 14:57:00,
2013-09-28 11:02:00,69.3,58.6,30.25,SE,135,0.0,2.0,69,0.00,,,0.00,WUHU21623XXSP,2013-09-28 15:02:00,
2013-09-28 11:07:00,69.4,58.4,30.24,SE,135,0.0,3.6,68,0.00,,,0.00,WUHU21623XXSP,2013-09-28 15:07:00,
2013-09-28 11:12:00,69.6,58.5,30.24,SE,135,0.0,3.6,68,0.00,,,0.00,WUHU21623XXSP,2013-09-28 15:12:00,
2013-09-28 11:17:00,69.6,58.1,30.24,SE,135,2.7,4.9,67,0.00,,,0.00,WUHU21623XXSP,2013-09-28 15:17:00,
2013-09-28 11:22:00,69.4,58.0,30.24,SE,135,0.0,4.9,67,0.00,,,0.00,WUHU21623XXSP,2013-09-28 15:22:00,
2013-09-28 11:27:00,69.6,58.1,30.24,SE,135,0.0,1.1,67,0.00,,,0.00,WUHU21623XXSP,2013-09-28 15:27:00,
2013-09-28 11:32:00,69.6,58.1,30.24,SE,135,3.6,5.4,67,0.00,,,0.00,WUHU21623XXSP,2013-09-28 15:32:00,
2013-09-28 11:37:00,69.6,57.7,30.24,SE,135,0.0,6.3,66,0.00,,,0.00,WUHU21623XXSP,2013-09-28 15:37:00,
2013-09-28 11:42:00,70.5,58.6,30.24,SE,135,0.0,6.3,66,0.00,,,0.00,WUHU21623XXSP,2013-09-28 15:42:00,
2013-09-28 11:47:00,70.9,58.1,30.24,SE,135,0.0,3.1,64,0.00,,,0.00,WUHU21623XXSP,2013-09-28 15:47:00,
2013-09-28 11:52:00,70.7,58.3,30.24,South,180,0.0,4.7,65,0.00,,,0.00,WUHU21623XXSP,2013-09-28 15:52:00,
2013-09-28 11:57:00,71.4,58.6,30.24,SSW,202,0.0,6.7,64,0.00,,,0.00,WUHU21623XXSP,2013-09-28 15:57:00,
2013-09-28 12:02:00,71.4,58.6,30.24,SSW,202,0.0,6.9,64,0.00,,,0.00,WUHU21623XXSP,2013-09-28 16:02:00,
2013-09-28 12:07:00,72.1,58.4,30.24,SW,225,5.8,7.2,62,0.00,,,0.00,WUHU21623XXSP,2013-09-28 16:07:00,
2013-09-28 12:12:00,72.5,58.7,30.24,SW,225,0.0,7.2,62,0.00,,,0.00,WUHU21623XXSP,2013-09-28 16:12:00,
2013-09-28 12:17:00,72.3,58.1,30.24,SSW,202,0.0,6.9,61,0.00,,,0.00,WUHU21623XXSP,2013-09-28 16:17:00,
2013-09-28 12:23:00,72.3,58.5,30.24,SSW,202,0.0,5.6,62,0.00,,,0.00,WUHU21623XXSP,2013-09-28 16:23:00,
2013-09-28 12:28:00,72.7,58.9,30.24,SSW,202,0.0,6.5,62,0.00,,,0.00,WUHU21623XXSP,2013-09-28 16:28:00,
2013-09-28 12:33:00,72.7,58.4,30.23,SSW,202,0.0,6.5,61,0.00,,,0.00,WUHU21623XXSP,2013-09-28 16:33:00,
2013-09-28 12:38:00,72.3,57.7,30.23,SSW,202,0.0,4.3,60,0.00,,,0.00,WUHU21623XXSP,2013-09-28 16:38:00,
2013-09-28 12:43:00,72.3,58.5,30.23,SE,135,0.0,2.2,62,0.00,,,0.00,WUHU21623XXSP,2013-09-28 16:43:00,
2013-09-28 12:48:00,72.7,58.9,30.23,WSW,247,0.0,5.4,62,0.00,,,0.00,WUHU21623XXSP,2013-09-28 16:48:00,
2013-09-28 12:53:00,72.7,57.5,30.23,WSW,247,0.0,6.0,59,0.00,,,0.00,WUHU21623XXSP,2013-09-28 16:53:00,
2013-09-28 12:58:00,72.9,58.2,30.23,SSW,202,3.1,6.5,60,0.00,,,0.00,WUHU21623XXSP,2013-09-28 16:58:00,
2013-09-28 13:03:00,72.3,57.2,30.22,South,180,6.3,6.5,59,0.00,,,0.00,WUHU21623XXSP,2013-09-28 17:03:00,
2013-09-28 13:08:00,72.7,57.5,30.22,South,180,0.0,6.5,59,0.00,,,0.00,WUHU21623XXSP,2013-09-28 17:08:00,
2013-09-28 13:13:00,72.5,56.8,30.22,WSW,247,0.0,4.5,58,0.00,,,0.00,WUHU21623XXSP,2013-09-28 17:13:00,
2013-09-28 13:18:00,73.2,57.5,30.22,SW,225,0.0,6.5,58,0.00,,,0.00,WUHU21623XXSP,2013-09-28 17:18:00,
2013-09-28 13:23:00,73.0,56.8,30.21,SW,225,0.0,6.5,57,0.00,,,0.00,WUHU21623XXSP,2013-09-28 17:23:00,
2013-09-28 13:28:00,72.9,56.1,30.21,SW,225,0.0,0.0,56,0.00,,,0.00,WUHU21623XXSP,2013-09-28 17:28:00,
2013-09-28 13:33:00,73.0,56.8,30.21,WSW,247,0.0,6.5,57,0.00,,,0.00,WUHU21623XXSP,2013-09-28 17:33:00,
2013-09-28 13:38:00,73.0,57.3,30.21,West,270,0.0,6.5,58,0.00,,,0.00,WUHU21623XXSP,2013-09-28 17:38:00,
2013-09-28 13:43:00,73.4,57.1,30.21,NNW,337,0.0,4.7,57,0.00,,,0.00,WUHU21623XXSP,2013-09-28 17:43:00,
2013-09-28 13:48:00,73.9,57.7,30.21,SW,225,0.0,6.7,57,0.00,,,0.00,WUHU21623XXSP,2013-09-28 17:48:00,
2013-09-28 13:53:00,74.5,57.7,30.20,SW,225,4.7,6.7,56,0.00,,,0.00,WUHU21623XXSP,2013-09-28 17:53:00,
2013-09-28 13:58:00,75.0,57.2,30.20,SSW,202,0.0,5.4,54,0.00,,,0.00,WUHU21623XXSP,2013-09-28 17:58:00,
2013-09-28 14:03:00,74.5,57.2,30.20,WSW,247,0.0,5.4,55,0.00,,,0.00,WUHU21623XXSP,2013-09-28 18:03:00,
2013-09-28 14:08:00,74.7,56.9,30.20,WSW,247,0.0,4.0,54,0.00,,,0.00,WUHU21623XXSP,2013-09-28 18:08:00,
2013-09-28 14:13:00,74.5,56.7,30.19,NNW,337,5.1,9.2,54,0.00,,,0.00,WUHU21623XXSP,2013-09-28 18:13:00,
2013-09-28 14:18:00,74.5,56.7,30.19,NNW,337,0.0,9.2,54,0.00,,,0.00,WUHU21623XXSP,2013-09-28 18:18:00,
2013-09-28 14:23:00,74.8,56.6,30.19,North,0,0.0,4.7,53,0.00,,,0.00,WUHU21623XXSP,2013-09-28 18:23:00,
2013-09-28 14:28:00,74.7,56.4,30.19,NNE,22,0.0,4.5,53,0.00,,,0.00,WUHU21623XXSP,2013-09-28 18:28:00,
2013-09-28 14:33:00,74.8,56.6,30.19,SE,135,0.0,7.6,53,0.00,,,0.00,WUHU21623XXSP,2013-09-28 18:33:00,
2013-09-28 14:38:00,74.8,55.5,30.19,SSE,157,0.0,7.6,51,0.00,,,0.00,WUHU21623XXSP,2013-09-28 18:38:00,
2013-09-28 14:43:00,75.4,56.1,30.19,SSE,157,0.0,1.3,51,0.00,,,0.00,WUHU21623XXSP,2013-09-28 18:43:00,
2013-09-28 14:48:00,75.9,56.6,30.18,SSE,157,0.0,4.5,51,0.00,,,0.00,WUHU21623XXSP,2013-09-28 18:48:00,
2013-09-28 14:53:00,76.1,57.2,30.18,North,0,0.0,4.5,52,0.00,,,0.00,WUHU21623XXSP,2013-09-28 18:53:00,
2013-09-28 14:58:00,76.6,57.2,30.18,SE,135,0.0,6.3,51,0.00,,,0.00,WUHU21623XXSP,2013-09-28 18:58:00,
2013-09-28 15:03:00,75.4,56.1,30.18,SE,135,5.6,11.0,51,0.00,,,0.00,WUHU21623XXSP,2013-09-28 19:03:00,
2013-09-28 15:08:00,74.5,55.7,30.18,SE,135,1.3,11.0,52,0.00,,,0.00,WUHU21623XXSP,2013-09-28 19:08:00,
2013-09-28 15:13:00,74.8,56.0,30.18,SE,135,0.0,9.4,52,0.00,,,0.00,WUHU21623XXSP,2013-09-28 19:13:00,
2013-09-28 15:18:00,74.8,56.0,30.18,SE,135,0.0,4.0,52,0.00,,,0.00,WUHU21623XXSP,2013-09-28 19:18:00,
2013-09-28 15:23:00,76.1,57.2,30.18,South,180,0.0,2.9,52,0.00,,,0.00,WUHU21623XXSP,2013-09-28 19:23:00,
2013-09-28 15:28:00,76.1,55.6,30.17,South,180,0.0,2.7,49,0.00,,,0.00,WUHU21623XXSP,2013-09-28 19:28:00,
2013-09-28 15:33:00,76.6,56.1,30.17,South,180,0.0,0.0,49,0.00,,,0.00,WUHU21623XXSP,2013-09-28 19:33:00,
2013-09-28 15:38:00,77.2,55.8,30.16,South,180,0.0,0.0,48,0.00,,,0.00,WUHU21623XXSP,2013-09-28 19:38:00,
2013-09-28 15:43:00,77.2,55.3,30.16,South,180,1.6,6.9,47,0.00,,,0.00,WUHU21623XXSP,2013-09-28 19:43:00,
2013-09-28 15:48:00,76.8,55.6,30.17,South,180,0.0,6.9,48,0.00,,,0.00,WUHU21623XXSP,2013-09-28 19:48:00,
2013-09-28 15:53:00,77.4,56.1,30.18,WSW,247,4.9,7.4,47,0.00,,,0.00,WUHU21623XXSP,2013-09-28 19:53:00,
2013-09-28 15:58:00,77.9,56.0,30.18,West,270,0.0,7.4,47,0.00,,,0.00,WUHU21623XXSP,2013-09-28 19:58:00,
2013-09-28 16:03:00,78.6,54.8,30.17,West,270,0.0,5.6,44,0.00,,,0.00,WUHU21623XXSP,2013-09-28 20:03:00,
2013-09-28 16:08:00,79.0,55.1,30.18,West,270,0.0,5.6,44,0.00,,,0.00,WUHU21623XXSP,2013-09-28 20:08:00,
2013-09-28 16:14:00,77.7,54.0,30.18,SE,135,3.6,4.9,44,0.00,,,0.00,WUHU21623XXSP,2013-09-28 20:14:00,
2013-09-28 16:19:00,77.2,55.3,30.17,SSE,157,0.0,5.4,47,0.00,,,0.00,WUHU21623XXSP,2013-09-28 20:19:00,
2013-09-28 16:24:00,77.2,55.3,30.17,SSE,157,0.0,3.4,47,0.00,,,0.00,WUHU21623XXSP,2013-09-28 20:24:00,
2013-09-28 16:29:00,77.9,55.4,30.17,South,180,0.0,0.0,46,0.00,,,0.00,WUHU21623XXSP,2013-09-28 20:29:00,
2013-09-28 16:34:00,78.6,56.6,30.17,South,180,0.0,5.1,47,0.00,,,0.00,WUHU21623XXSP,2013-09-28 20:34:00,
2013-09-28 16:39:00,79.0,55.7,30.17,SSW,202,0.0,5.1,45,0.00,,,0.00,WUHU21623XXSP,2013-09-28 20:39:00,
2013-09-28 16:44:00,79.2,57.1,30.17,SSW,202,0.0,0.0,47,0.00,,,0.00,WUHU21623XXSP,2013-09-28 20:44:00,
2013-09-28 16:49:00,79.3,55.5,30.17,SSW,202,0.0,0.0,44,0.00,,,0.00,WUHU21623XXSP,2013-09-28 20:49:00,
2013-09-28 16:54:00,77.5,54.4,30.16,SSE,157,3.4,4.9,45,0.00,,,0.00,WUHU21623XXSP,2013-09-28 20:54:00,
2013-09-28 16:59:00,76.8,55.0,30.17,SSE,157,0.0,5.6,47,0.00,,,0.00,WUHU21623XXSP,2013-09-28 20:59:00,
2013-09-28 17:04:00,77.4,55.5,30.16,SSE,157,0.0,5.6,47,0.00,,,0.00,WUHU21623XXSP,2013-09-28 21:04:00,
2013-09-28 17:09:00,77.7,55.2,30.16,South,180,0.0,4.3,46,0.00,,,0.00,WUHU21623XXSP,2013-09-28 21:09:00,
2013-09-28 17:14:00,78.1,55.5,30.16,South,180,0.0,4.3,46,0.00,,,0.00,WUHU21623XXSP,2013-09-28 21:14:00,
2013-09-28 17:19:00,76.8,55.0,30.16,South,180,0.0,1.3,47,0.00,,,0.00,WUHU21623XXSP,2013-09-28 21:19:00,
2013-09-28 17:24:00,75.0,54.6,30.15,South,180,0.0,3.1,49,0.00,,,0.00,WUHU21623XXSP,2013-09-28 21:24:00,
2013-09-28 17:29:00,73.9,54.1,30.15,SSE,157,4.5,6.0,50,0.00,,,0.00,WUHU21623XXSP,2013-09-28 21:29:00,
2013-09-28 17:34:00,73.0,53.8,30.15,SSE,157,0.0,6.0,51,0.00,,,0.00,WUHU21623XXSP,2013-09-28 21:34:00,
2013-09-28 17:39:00,72.7,54.5,30.15,SSE,157,0.0,3.8,53,0.00,,,0.00,WUHU21623XXSP,2013-09-28 21:39:00,
2013-09-28 17:44:00,72.3,54.1,30.15,SSE,157,0.0,3.6,53,0.00,,,0.00,WUHU21623XXSP,2013-09-28 21:44:00,
2013-09-28 17:49:00,72.1,54.0,30.15,SSE,157,0.0,3.1,53,0.00,,,0.00,WUHU21623XXSP,2013-09-28 21:49:00,
2013-09-28 17:54:00,71.8,54.7,30.15,SSE,157,0.0,3.6,55,0.00,,,0.00,WUHU21623XXSP,2013-09-28 21:54:00,
2013-09-28 17:59:00,71.4,54.3,30.15,South,180,4.3,6.0,55,0.00,,,0.00,WUHU21623XXSP,2013-09-28 21:59:00,
2013-09-28 18:04:00,71.2,54.2,30.15,WNW,292,0.0,6.0,55,0.00,,,0.00,WUHU21623XXSP,2013-09-28 22:04:00,
2013-09-28 18:09:00,70.9,54.4,30.15,WNW,292,0.0,0.0,56,0.00,,,0.00,WUHU21623XXSP,2013-09-28 22:09:00,
2013-09-28 18:14:00,70.7,54.7,30.16,WNW,292,0.0,0.0,57,0.00,,,0.00,WUHU21623XXSP,2013-09-28 22:14:00,
2013-09-28 18:19:00,70.3,54.9,30.15,WNW,292,0.0,0.0,58,0.00,,,0.00,WUHU21623XXSP,2013-09-28 22:19:00,
2013-09-28 18:24:00,70.0,54.6,30.15,WNW,292,0.0,0.0,58,0.00,,,0.00,WUHU21623XXSP,2013-09-28 22:24:00,
2013-09-28 18:29:00,69.6,55.2,30.15,WNW,292,0.0,0.0,60,0.00,,,0.00,WUHU21623XXSP,2013-09-28 22:29:00,
2013-09-28 18:34:00,69.1,55.5,30.15,NNE,22,3.4,3.4,62,0.00,,,0.00,WUHU21623XXSP,2013-09-28 22:34:00,
2013-09-28 18:39:00,68.5,56.3,30.16,NNE,22,0.0,5.6,65,0.00,,,0.00,WUHU21623XXSP,2013-09-28 22:39:00,
2013-09-28 18:44:00,68.2,56.8,30.16,NNE,22,0.0,5.6,67,0.00,,,0.00,WUHU21623XXSP,2013-09-28 22:44:00,
2013-09-28 18:49:00,67.6,56.7,30.16,NNE,22,0.0,5.6,68,0.00,,,0.00,WUHU21623XXSP,2013-09-28 22:49:00,
2013-09-28 18:55:00,67.1,56.6,30.16,NNE,22,0.0,3.4,69,0.00,,,0.00,WUHU21623XXSP,2013-09-28 22:55:00,
2013-09-28 19:00:00,66.7,56.7,30.16,ENE,67,0.0,3.4,70,0.00,,,0.00,WUHU21623XXSP,2013-09-28 23:00:00,
2013-09-28 19:05:00,66.4,56.7,30.16,ENE,67,2.0,2.0,71,0.00,,,0.00,WUHU21623XXSP,2013-09-28 23:05:00,
2013-09-28 19:10:00,66.2,56.9,30.16,NE,45,0.0,6.9,72,0.00,,,0.00,WUHU21623XXSP,2013-09-28 23:10:00,
2013-09-28 19:15:00,66.0,56.7,30.16,NE,45,0.0,6.9,72,0.00,,,0.00,WUHU21623XXSP,2013-09-28 23:15:00,
2013-09-28 19:20:00,66.0,57.1,30.16,NE,45,0.0,2.9,73,0.00,,,0.00,WUHU21623XXSP,2013-09-28 23:20:00,
2013-09-28 19:25:00,65.7,57.1,30.16,ENE,67,0.0,3.1,74,0.00,,,0.00,WUHU21623XXSP,2013-09-28 23:25:00,
2013-09-28 19:30:00,65.3,56.8,30.16,ENE,67,0.0,3.1,74,0.00,,,0.00,WUHU21623XXSP,2013-09-28 23:30:00,
2013-09-28 19:35:00,64.9,56.8,30.16,ENE,67,0.0,0.0,75,0.00,,,0.00,WUHU21623XXSP,2013-09-28 23:35:00,
2013-09-28 19:40:00,64.6,56.8,30.16,ENE,67,0.0,0.0,76,0.00,,,0.00,WUHU21623XXSP,2013-09-28 23:40:00,
2013-09-28 19:45:00,64.0,56.3,30.16,ENE,67,0.0,0.0,76,0.00,,,0.00,WUHU21623XXSP,2013-09-28 23:45:00,
2013-09-28 19:50:00,63.5,56.1,30.16,ENE,67,0.0,0.0,77,0.00,,,0.00,WUHU21623XXSP,2013-09-28 23:50:00,
2013-09-28 19:55:00,62.8,55.8,30.16,ENE,67,0.0,0.0,78,0.00,,,0.00,WUHU21623XXSP,2013-09-28 23:55:00,
2013-09-28 20:00:00,62.4,55.4,30.16,ENE,67,0.0,0.0,78,0.00,,,0.00,WUHU21623XXSP,2013-09-29 00:00:00,
2013-09-28 20:05:00,62.2,55.6,30.16,ENE,67,0.0,0.0,79,0.00,,,0.00,WUHU21623XXSP,2013-09-29 00:05:00,
2013-09-28 20:10:00,61.9,55.3,30.16,ENE,67,0.0,0.0,79,0.00,,,0.00,WUHU21623XXSP,2013-09-29 00:10:00,
2013-09-28 20:15:00,61.5,55.3,30.17,ENE,67,0.0,0.0,80,0.00,,,0.00,WUHU21623XXSP,2013-09-29 00:15:00,
2013-09-28 20:20:00,61.0,55.2,30.16,ENE,67,0.0,0.0,81,0.00,,,0.00,WUHU21623XXSP,2013-09-29 00:20:00,
2013-09-28 20:25:00,60.6,54.8,30.16,ENE,67,0.0,0.0,81,0.00,,,0.00,WUHU21623XXSP,2013-09-29 00:25:00,
2013-09-28 20:30:00,60.1,54.6,30.16,ENE,67,0.0,0.0,82,0.00,,,0.00,WUHU21623XXSP,2013-09-29 00:30:00,
2013-09-28 20:35:00,59.7,54.6,30.17,ENE,67,0.0,0.0,83,0.00,,,0.00,WUHU21623XXSP,2013-09-29 00:35:00,
2013-09-28 20:40:00,59.5,54.7,30.16,ENE,67,0.0,0.0,84,0.00,,,0.00,WUHU21623XXSP,2013-09-29 00:40:00,
2013-09-28 20:45:00,59.7,54.7,30.16,ENE,67,0.0,0.0,84,0.00,,,0.00,WUHU21623XXSP,2013-09-29 00:45:00,
2013-09-28 20:50:00,59.7,55.2,30.16,ENE,67,0.0,0.0,85,0.00,,,0.00,WUHU21623XXSP,2013-09-29 00:50:00,
2013-09-28 20:55:00,59.5,55.0,30.16,ENE,67,0.0,0.0,85,0.00,,,0.00,WUHU21623XXSP,2013-09-29 00:55:00,
2013-09-28 21:00:00,59.4,55.2,30.16,ENE,67,0.0,0.0,86,0.00,,,0.00,WUHU21623XXSP,2013-09-29 01:00:00,
2013-09-28 21:05:00,59.0,54.8,30.16,ESE,112,0.0,0.0,86,0.00,,,0.00,WUHU21623XXSP,2013-09-29 01:05:00,
2013-09-28 21:10:00,58.8,54.6,30.16,SE,135,0.0,0.0,86,0.00,,,0.00,WUHU21623XXSP,2013-09-29 01:10:00,
2013-09-28 21:15:00,59.2,55.0,30.16,SSE,157,0.0,3.8,86,0.00,,,0.00,WUHU21623XXSP,2013-09-29 01:15:00,
2013-09-28 21:20:00,59.4,54.9,30.16,SSE,157,0.0,3.8,85,0.00,,,0.00,WUHU21623XXSP,2013-09-29 01:20:00,
2013-09-28 21:25:00,59.4,54.9,30.16,South,180,6.0,6.0,85,0.00,,,0.00,WUHU21623XXSP,2013-09-29 01:25:00,
2013-09-28 21:30:00,59.5,54.7,30.16,South,180,6.7,8.1,84,0.00,,,0.00,WUHU21623XXSP,2013-09-29 01:30:00,
2013-09-28 21:35:00,59.9,54.4,30.16,SSW,202,6.7,10.7,82,0.00,,,0.00,WUHU21623XXSP,2013-09-29 01:35:00,
2013-09-28 21:40:00,60.4,54.3,30.16,SSW,202,3.6,10.7,80,0.00,,,0.00,WUHU21623XXSP,2013-09-29 01:40:00,
2013-09-28 21:45:00,61.0,54.1,30.15,South,180,6.9,14.3,78,0.00,,,0.00,WUHU21623XXSP,2013-09-29 01:45:00,
2013-09-28 21:50:00,61.3,53.7,30.15,South,180,7.6,14.3,76,0.00,,,0.00,WUHU21623XXSP,2013-09-29 01:50:00,
2013-09-28 21:55:00,61.5,53.2,30.15,SSW,202,10.3,13.0,74,0.00,,,0.00,WUHU21623XXSP,2013-09-29 01:55:00,
2013-09-28 22:00:00,61.9,52.8,30.15,SSW,202,10.1,14.3,72,0.00,,,0.00,WUHU21623XXSP,2013-09-29 02:00:00,
2013-09-28 22:05:00,61.9,52.4,30.15,South,180,8.5,14.3,71,0.00,,,0.00,WUHU21623XXSP,2013-09-29 02:05:00,
2013-09-28 22:10:00,61.9,52.4,30.15,South,180,5.1,11.9,71,0.00,,,0.00,WUHU21623XXSP,2013-09-29 02:10:00,
2013-09-28 22:15:00,61.9,52.1,30.14,SW,225,7.4,14.5,70,0.00,,,0.00,WUHU21623XXSP,2013-09-29 02:15:00,
2013-09-28 22:20:00,62.1,52.2,30.14,SSW,202,7.2,14.5,70,0.00,,,0.00,WUHU21623XXSP,2013-09-29 02:20:00,
2013-09-28 22:25:00,61.9,51.6,30.14,SSW,202,9.4,10.3,69,0.00,,,0.00,WUHU21623XXSP,2013-09-29 02:25:00,
2013-09-28 22:30:00,61.5,51.3,30.14,SSW,202,6.9,9.6,69,0.00,,,0.00,WUHU21623XXSP,2013-09-29 02:30:00,
2013-09-28 22:35:00,61.3,51.2,30.13,SSW,202,1.6,9.2,69,0.00,,,0.00,WUHU21623XXSP,2013-09-29 02:35:00,
2013-09-28 22:40:00,61.2,51.0,30.13,South,180,2.0,9.2,69,0.00,,,0.00,WUHU21623XXSP,2013-09-29 02:40:00,
2013-09-28 22:46:00,60.6,50.9,30.13,South,180,2.5,9.2,70,0.00,,,0.00,WUHU21623XXSP,2013-09-29 02:46:00,
2013-09-28 22:51:00,60.1,50.4,30.13,South,180,4.0,8.9,70,0.00,,,0.00,WUHU21623XXSP,2013-09-29 02:51:00,
2013-09-28 22:56:00,59.7,50.4,30.13,South,180,7.8,10.1,71,0.00,,,0.00,WUHU21623XXSP,2013-09-29 02:56:00,
2013-09-28 23:01:00,59.7,50.4,30.13,South,180,9.6,10.1,71,0.00,,,0.00,WUHU21623XXSP,2013-09-29 03:01:00,
2013-09-28 23:06:00,59.7,50.4,30.13,SSW,202,6.7,9.8,71,0.00,,,0.00,WUHU21623XXSP,2013-09-29 03:06:00,
2013-09-28 23:11:00,59.5,50.2,30.13,South,180,4.5,9.8,71,0.00,,,0.00,WUHU21623XXSP,2013-09-29 03:11:00,
2013-09-28 23:16:00,58.8,49.8,30.13,South,180,3.6,7.4,72,0.00,,,0.00,WUHU21623XXSP,2013-09-29 03:16:00,
2013-09-28 23:21:00,58.5,49.5,30.13,South,180,0.2,6.5,72,0.00,,,0.00,WUHU21623XXSP,2013-09-29 03:21:00,
2013-09-28 23:26:00,57.9,49.3,30.13,South,180,2.2,3.8,73,0.00,,,0.00,WUHU21623XXSP,2013-09-29 03:26:00,
2013-09-28 23:31:00,57.6,49.3,30.13,South,180,0.0,2.2,74,0.00,,,0.00,WUHU21623XXSP,2013-09-29 03:31:00,
2013-09-28 23:36:00,57.2,49.3,30.13,South,180,0.0,1.8,75,0.00,,,0.00,WUHU21623XXSP,2013-09-29 03:36:00,
2013-09-28 23:41:00,57.0,49.1,30.13,South,180,0.0,0.7,75,0.00,,,0.00,WUHU21623XXSP,2013-09-29 03:41:00,
2013-09-28 23:46:00,56.8,48.9,30.13,South,180,0.0,0.0,75,0.00,,,0.00,WUHU21623XXSP,2013-09-29 03:46:00,
2013-09-28 23:51:00,56.5,48.9,30.13,South,180,0.0,0.0,76,0.00,,,0.00,WUHU21623XXSP,2013-09-29 03:51:00,
2013-09-28 23:56:00,56.5,48.9,30.13,South,180,0.0,0.0,76,0.00,,,0.00,WUHU21623XXSP,2013-09-29 03:56:00,